Weather History for Kerkyra, Greece

Change the Weather History Date:

Friday, March 30, 2012

  Actual Average Record
Temperature  
Mean Temperature 56 °F -  
Max Temperature 65 °F 67 °F 73 °F (2013)
Min Temperature 47 °F 49 °F 41 °F (2002)
Degree Days  
Heating Degree Days 9    
Growing Degree Days 6 (Base 50)    
Moisture  
Dew Point 52 °F    
Average Humidity 83    
Maximum Humidity 94    
Minimum Humidity 62    
Precipitation  
Precipitation 0.00 in 0.08 in - ()
Sea Level Pressure  
Sea Level Pressure 29.89 in    
Wind  
Wind Speed 4 mph ()    
Max Wind Speed 14 mph    
Max Gust Speed -    
Visibility 6.3 miles    
Events      
Averages and records for this station are not official NWS values.
T = Trace of Precipitation, MM = Missing Value Source: Averaged Metar Reports

Daily Weather History Graph

Daily Weather History Graph

Search for Another Location

Airport:

Trip Planner

Search our weather history database for the weather conditions in past years. The results will help you decide how hot, cold, wet, or windy it might be!

Date:

Astronomy

Mar. 30, 2012 Rise Set
Actual Time 7:27 AM EEST 8:02 PM EEST
Civil Twilight 7:00 AM EEST 8:29 PM EEST
Nautical Twilight 6:28 AM EEST 9:01 PM EEST
Astronomical Twilight 5:55 AM EEST 9:34 PM EEST
Moon 12:16 PM EEST (3/30) 2:24 AM EEST (3/30)
Length of Visible Light 13h 29m
Length of Day
12h 35m
Waxing Crescent, 46% of the Moon is Illuminated
Mar 30
Waxing Crescent
Mar 30
First Quarter
Apr 6
Full
Apr 13
Last Quarter
Apr 21
New

Hourly Weather History & Observations

Time (EEST) Temp. Dew Point Humidity Pressure Visibility Wind Dir Wind Speed Gust Speed Precip Events Conditions
12:20 AM 55.4 °F 53.6 °F 94% 29.98 in 6.2 mi Calm Calm - N/A   Partly Cloudy
12:50 AM 53.6 °F 51.8 °F 94% 29.98 in 6.2 mi Calm Calm - N/A   Partly Cloudy
1:20 AM 53.6 °F 51.8 °F 94% 29.98 in 6.2 mi Calm Calm - N/A   Partly Cloudy
1:50 AM 53.6 °F 51.8 °F 94% 29.98 in - Calm Calm - N/A   Clear
2:20 AM 53.6 °F 51.8 °F 94% 29.98 in - Calm Calm - N/A   Clear
2:50 AM 50.0 °F 48.2 °F 94% 29.98 in - Calm Calm - N/A   Clear
3:00 AM 50 °F 47 °F 88% 29.99 in 6 mi Calm Calm - -  
3:20 AM 50.0 °F 48.2 °F 94% 29.98 in - Calm Calm - N/A   Clear
3:50 AM 48.2 °F 46.4 °F 93% 29.95 in - Calm Calm - N/A   Clear
4:20 AM 48.2 °F 46.4 °F 93% 29.95 in - Calm Calm - N/A   Clear
4:50 AM 48.2 °F 46.4 °F 93% 29.95 in 6.2 mi Calm Calm - N/A   Partly Cloudy
5:20 AM 48.2 °F 46.4 °F 93% 29.95 in 6.2 mi Calm Calm - N/A   Scattered Clouds
5:50 AM 48.2 °F 46.4 °F 93% 29.92 in 6.2 mi Calm Calm - N/A   Scattered Clouds
6:20 AM 48.2 °F 46.4 °F 93% 29.92 in 6.2 mi Calm Calm - N/A   Scattered Clouds
6:50 AM 48.2 °F 46.4 °F 93% 29.92 in 6.2 mi Calm Calm - N/A   Scattered Clouds
7:20 AM 48.2 °F 46.4 °F 93% 29.89 in 6.2 mi Calm Calm - N/A   Scattered Clouds
7:50 AM 48.2 °F 46.4 °F 93% 29.89 in 6.2 mi Calm Calm - N/A   Scattered Clouds
8:20 AM 48.2 °F 46.4 °F 93% 29.89 in 6.2 mi Calm Calm - N/A   Scattered Clouds
8:50 AM 51.8 °F 50.0 °F 94% 29.89 in 6.2 mi ESE 9.2 mph - N/A   Scattered Clouds
9:00 AM 53 °F 50 °F 84% 29.91 in 12 mi ESE 9.2 mph - -   Partly Cloudy
9:20 AM 55.4 °F 51.8 °F 88% 29.89 in 6.2 mi ESE 9.2 mph - N/A   Scattered Clouds
9:50 AM 57.2 °F 55.4 °F 94% 29.89 in 6.2 mi ESE 9.2 mph - N/A   Scattered Clouds
10:20 AM 59.0 °F 55.4 °F 88% 29.89 in 6.2 mi SE 10.4 mph - N/A   Scattered Clouds
10:50 AM 60.8 °F 55.4 °F 82% 29.89 in 6.2 mi SE 11.5 mph - N/A   Scattered Clouds
11:20 AM 60.8 °F 55.4 °F 82% 29.89 in 6.2 mi SE 11.5 mph - N/A   Scattered Clouds
11:50 AM 62.6 °F 53.6 °F 72% 29.89 in 6.2 mi SSE 12.7 mph - N/A   Scattered Clouds
12:20 PM 62.6 °F 53.6 °F 72% 29.89 in 6.2 mi SSE 12.7 mph - N/A   Scattered Clouds
12:50 PM 64.4 °F 53.6 °F 68% 29.89 in 6.2 mi SSE 11.5 mph - N/A   Scattered Clouds
1:20 PM 64.4 °F 53.6 °F 68% 29.89 in 6.2 mi SSE 11.5 mph - N/A   Scattered Clouds
1:50 PM 64.4 °F 53.6 °F 68% 29.89 in 6.2 mi SSE 10.4 mph - N/A   Scattered Clouds
2:20 PM 64.4 °F 53.6 °F 68% 29.89 in 6.2 mi SE 13.8 mph - N/A   Scattered Clouds
2:50 PM 64.4 °F 53.6 °F 68% 29.86 in 6.2 mi SSE 13.8 mph - N/A   Scattered Clouds
3:00 PM 64 °F 54 °F 62% 29.86 in 6 mi SSE 13.8 mph - -   Partly Cloudy
3:20 PM 64.4 °F 53.6 °F 68% 29.86 in 6.2 mi SSE 12.7 mph - N/A   Scattered Clouds
3:50 PM 66.2 °F 55.4 °F 68% 29.83 in 6.2 mi SSE 12.7 mph - N/A   Scattered Clouds
4:20 PM 66.2 °F 55.4 °F 68% 29.83 in 6.2 mi SE 11.5 mph - N/A   Scattered Clouds
4:50 PM 66.2 °F 53.6 °F 64% 29.83 in 6.2 mi SSE 12.7 mph - N/A   Scattered Clouds
5:20 PM 66.2 °F 53.6 °F 64% 29.83 in 6.2 mi SSE 11.5 mph - N/A   Scattered Clouds
5:50 PM 62.6 °F 55.4 °F 77% 29.83 in 6.2 mi SSE 11.5 mph - N/A   Scattered Clouds
6:20 PM 62.6 °F 55.4 °F 77% 29.83 in 6.2 mi SSE 9.2 mph - N/A   Scattered Clouds
6:50 PM 62.6 °F 53.6 °F 72% 29.80 in 6.2 mi SE 8.1 mph - N/A   Scattered Clouds
7:20 PM 62.6 °F 53.6 °F 72% 29.80 in 6.2 mi SE 6.9 mph - N/A   Scattered Clouds
7:50 PM 60.8 °F 53.6 °F 77% 29.80 in 6.2 mi SE 5.8 mph - N/A   Scattered Clouds
8:20 PM 60.8 °F 53.6 °F 77% 29.80 in 6.2 mi SSE 5.8 mph - N/A   Scattered Clouds
8:50 PM 59.0 °F 55.4 °F 88% 29.80 in 6.2 mi SSE 4.6 mph - N/A   Scattered Clouds
9:00 PM 59 °F 56 °F 85% 29.83 in 6 mi SSE 4.6 mph - -   Partly Cloudy
9:20 PM 59.0 °F 55.4 °F 88% 29.80 in 6.2 mi South 4.6 mph - N/A   Scattered Clouds
9:50 PM 59.0 °F 55.4 °F 88% 29.83 in 6.2 mi SSE 3.5 mph - N/A   Scattered Clouds
10:20 PM 59.0 °F 55.4 °F 88% 29.83 in 6.2 mi South 4.6 mph - N/A   Scattered Clouds
10:50 PM 57.2 °F 55.4 °F 94% 29.83 in 6.2 mi South 4.6 mph - N/A   Scattered Clouds
11:20 PM 57.2 °F 55.4 °F 94% 29.83 in 6.2 mi SE 6.9 mph - N/A   Scattered Clouds
11:50 PM 59.0 °F 55.4 °F 88% 29.86 in 6.2 mi SSE 6.9 mph - N/A   Scattered Clouds